Time,TemperatureF,DewpointF,PressureIn,WindDirection,WindDirectionDegrees,WindSpeedMPH,WindSpeedGustMPH,Humidity,HourlyPrecipIn,Conditions,Clouds,dailyrainin,SoftwareType,DateUTC
2015-01-27 00:13:00,11.0,8.0,29.97,SW,217,0.0,0.0,89,0.00,,,0.05,,2015-01-27 05:13:00,
2015-01-27 00:23:00,11.0,8.0,29.96,SW,217,0.0,0.0,89,0.00,,,0.05,,2015-01-27 05:23:00,
2015-01-27 00:43:00,11.0,9.0,29.96,SW,217,0.0,0.0,90,0.00,,,0.05,,2015-01-27 05:43:00,
2015-01-27 00:53:00,11.0,9.0,29.96,SW,217,0.0,0.0,90,0.00,,,0.05,,2015-01-27 05:53:00,
2015-01-27 01:13:00,12.0,10.0,29.96,SW,217,0.0,0.0,91,0.00,,,0.05,,2015-01-27 06:13:00,
2015-01-27 01:23:00,12.0,10.0,29.96,SW,217,0.0,1.0,91,0.00,,,0.05,,2015-01-27 06:23:00,
2015-01-27 01:43:00,13.0,11.0,29.95,SW,217,0.0,0.0,90,0.00,,,0.05,,2015-01-27 06:43:00,
2015-01-27 01:53:00,13.0,11.0,29.95,SW,217,0.0,0.0,90,0.00,,,0.05,,2015-01-27 06:53:00,
2015-01-27 02:22:00,13.0,10.0,29.95,SW,217,0.0,1.0,89,0.00,,,0.05,,2015-01-27 07:22:00,
2015-01-27 02:42:00,13.0,10.0,29.95,SW,217,0.0,0.0,89,0.00,,,0.05,,2015-01-27 07:42:00,
2015-01-27 02:52:00,13.0,10.0,29.95,SW,217,0.0,1.0,89,0.00,,,0.05,,2015-01-27 07:52:00,
2015-01-27 03:12:00,13.0,10.0,29.95,SW,217,0.0,1.0,88,0.00,,,0.05,,2015-01-27 08:12:00,
2015-01-27 03:22:00,13.0,10.0,29.95,SW,217,0.0,1.0,89,0.00,,,0.05,,2015-01-27 08:22:00,
2015-01-27 03:42:00,13.0,10.0,29.95,SW,217,0.0,1.0,88,0.00,,,0.05,,2015-01-27 08:42:00,
2015-01-27 03:52:00,13.0,10.0,29.95,SW,217,0.0,0.0,89,0.00,,,0.05,,2015-01-27 08:52:00,
2015-01-27 04:23:00,14.0,11.0,29.95,SW,217,0.0,0.0,89,0.00,,,0.05,,2015-01-27 09:23:00,
2015-01-27 04:44:00,14.0,11.0,29.95,SW,217,0.0,0.0,89,0.00,,,0.05,,2015-01-27 09:44:00,
2015-01-27 04:54:00,14.0,11.0,29.95,SW,217,0.0,0.0,89,0.00,,,0.05,,2015-01-27 09:54:00,
2015-01-27 05:24:00,14.0,11.0,29.96,SW,217,0.0,1.0,88,0.00,,,0.05,,2015-01-27 10:24:00,
2015-01-27 05:44:00,14.0,11.0,29.96,SW,217,0.0,1.0,88,0.00,,,0.05,,2015-01-27 10:44:00,
2015-01-27 05:54:00,14.0,11.0,29.97,SW,217,0.0,2.0,88,0.00,,,0.05,,2015-01-27 10:54:00,
2015-01-27 06:13:00,14.0,11.0,29.97,SW,217,0.0,3.0,88,0.00,,,0.05,,2015-01-27 11:13:00,
2015-01-27 06:23:00,13.0,10.0,29.98,SW,217,0.0,1.0,88,0.00,,,0.05,,2015-01-27 11:23:00,
2015-01-27 06:43:00,13.0,10.0,29.99,SW,217,0.0,1.0,88,0.00,,,0.05,,2015-01-27 11:43:00,
2015-01-27 06:52:00,13.0,10.0,29.99,SW,217,0.0,0.0,88,0.00,,,0.05,,2015-01-27 11:52:00,
2015-01-27 07:23:00,12.0,9.0,30.01,SW,217,0.0,0.0,88,0.00,,,0.05,,2015-01-27 12:23:00,
2015-01-27 07:42:00,11.0,8.0,30.02,SW,217,0.0,0.0,88,0.00,,,0.05,,2015-01-27 12:42:00,
2015-01-27 07:52:00,11.0,8.0,30.03,SW,217,0.0,0.0,88,0.00,,,0.05,,2015-01-27 12:52:00,
2015-01-27 08:22:00,10.0,7.0,30.04,SW,217,0.0,0.0,89,0.00,,,0.05,,2015-01-27 13:22:00,
2015-01-27 08:42:00,10.0,7.0,30.05,SW,217,0.0,0.0,89,0.00,,,0.05,,2015-01-27 13:42:00,
2015-01-27 08:52:00,11.0,9.0,30.06,SW,217,0.0,0.0,90,0.00,,,0.05,,2015-01-27 13:52:00,
2015-01-27 09:22:00,12.0,10.0,30.06,SW,217,0.0,1.0,90,0.00,,,0.05,,2015-01-27 14:22:00,
2015-01-27 09:53:00,14.0,11.0,30.07,SW,218,0.0,2.0,89,0.00,,,0.05,,2015-01-27 14:53:00,
2015-01-27 10:22:00,16.0,13.0,30.09,West,275,0.0,3.0,86,0.00,,,0.05,,2015-01-27 15:22:00,
2015-01-27 10:45:00,17.0,13.0,30.09,West,273,0.0,4.0,85,0.00,,,0.05,,2015-01-27 15:45:00,
2015-01-27 10:54:00,18.0,14.0,30.09,SSW,192,0.0,3.0,84,0.00,,,0.05,,2015-01-27 15:54:00,
2015-01-27 11:23:00,20.0,15.0,30.11,West,275,0.0,5.0,81,0.00,,,0.05,,2015-01-27 16:23:00,
2015-01-27 11:44:00,20.0,15.0,30.11,NW,322,0.0,6.0,81,0.00,,,0.05,,2015-01-27 16:44:00,
2015-01-27 11:54:00,22.0,16.0,30.11,WSW,240,1.0,4.0,79,0.00,,,0.05,,2015-01-27 16:54:00,
2015-01-27 12:23:00,22.0,16.0,30.11,West,281,1.0,4.0,77,0.00,,,0.04,,2015-01-27 17:23:00,
2015-01-27 12:53:00,22.0,16.0,30.11,SW,230,0.0,5.0,76,0.00,,,0.04,,2015-01-27 17:53:00,
2015-01-27 13:22:00,22.0,16.0,30.11,WSW,242,0.0,5.0,78,0.00,,,0.03,,2015-01-27 18:22:00,
2015-01-27 13:42:00,23.0,17.0,30.11,SSW,205,0.0,5.0,76,0.00,,,0.03,,2015-01-27 18:42:00,
2015-01-27 13:53:00,23.0,17.0,30.11,SSE,165,0.0,3.0,77,0.00,,,0.03,,2015-01-27 18:53:00,
2015-01-27 14:23:00,23.0,16.0,30.11,West,271,0.0,4.0,75,0.01,,,0.03,,2015-01-27 19:23:00,
2015-01-27 14:42:00,23.0,16.0,30.11,SSW,208,0.0,3.0,75,0.01,,,0.03,,2015-01-27 19:42:00,
2015-01-27 14:52:00,23.0,16.0,30.11,South,190,0.0,3.0,75,0.01,,,0.03,,2015-01-27 19:52:00,
2015-01-27 15:12:00,24.0,17.0,30.11,SSW,193,1.0,5.0,74,0.01,,,0.02,,2015-01-27 20:12:00,
2015-01-27 15:22:00,24.0,17.0,30.11,NNW,344,0.0,4.0,73,0.00,,,0.02,,2015-01-27 20:22:00,